TimeCST,TemperatureF,Dew PointF,Humidity,Sea Level PressureIn,VisibilityMPH,Wind Direction,Wind SpeedMPH,Gust SpeedMPH,PrecipitationIn,Events,Conditions,WindDirDegrees,DateUTC
12:53 AM,48.0,41.0,77,30.22,10.0,West,3.5,-,N/A,,Clear,280,2012-11-21 06:53:00
1:53 AM,46.9,41.0,80,30.24,10.0,West,4.6,-,N/A,,Clear,260,2012-11-21 07:53:00
2:53 AM,45.0,41.0,86,30.25,9.0,Calm,Calm,-,N/A,,Clear,0,2012-11-21 08:53:00
3:53 AM,43.0,39.9,89,30.25,7.0,Calm,Calm,-,N/A,,Clear,0,2012-11-21 09:53:00
4:53 AM,45.0,42.1,90,30.25,8.0,Calm,Calm,-,N/A,,Clear,0,2012-11-21 10:53:00
5:53 AM,42.8,39.2,87,30.25,6.0,Calm,Calm,-,N/A,,Clear,0,2012-11-21 11:53:00
6:42 AM,39.2,39.2,100,30.27,2.5,Calm,Calm,-,N/A,,Clear,0,2012-11-21 12:42:00
6:53 AM,39.9,39.0,97,30.27,1.8,Calm,Calm,-,N/A,,Clear,0,2012-11-21 12:53:00
7:03 AM,41.0,39.2,93,30.27,2.0,Calm,Calm,-,N/A,,Clear,0,2012-11-21 13:03:00
7:45 AM,42.8,42.8,100,30.28,3.0,Calm,Calm,-,N/A,,Clear,0,2012-11-21 13:45:00
7:53 AM,43.0,42.1,97,30.28,3.0,Calm,Calm,-,N/A,,Clear,0,2012-11-21 13:53:00
8:01 AM,44.6,42.8,93,30.28,2.5,Calm,Calm,-,N/A,,Clear,0,2012-11-21 14:01:00
8:13 AM,44.6,44.6,100,30.28,3.0,Calm,Calm,-,N/A,,Clear,0,2012-11-21 14:13:00
8:53 AM,46.9,43.0,86,30.29,5.0,SE,3.5,-,N/A,,Clear,140,2012-11-21 14:53:00
9:53 AM,54.0,45.0,72,30.29,9.0,SE,6.9,-,N/A,,Clear,130,2012-11-21 15:53:00
10:53 AM,60.1,44.1,55,30.29,10.0,SE,5.8,-,N/A,,Clear,130,2012-11-21 16:53:00
11:53 AM,64.0,37.9,38,30.25,10.0,SE,5.8,-,N/A,,Clear,140,2012-11-21 17:53:00
12:53 PM,66.0,36.0,33,30.22,10.0,Variable,3.5,-,N/A,,Clear,0,2012-11-21 18:53:00
1:53 PM,68.0,35.6,30,30.21,10.0,ESE,5.8,-,N/A,,Clear,120,2012-11-21 19:53:00
2:53 PM,68.0,32.0,26,30.18,10.0,ESE,4.6,-,N/A,,Clear,110,2012-11-21 20:53:00
3:53 PM,66.9,32.0,27,30.18,10.0,ESE,4.6,-,N/A,,Clear,120,2012-11-21 21:53:00
4:53 PM,61.0,34.0,36,30.17,10.0,ESE,4.6,-,N/A,,Clear,120,2012-11-21 22:53:00
5:53 PM,57.0,35.1,44,30.17,10.0,SE,3.5,-,N/A,,Clear,140,2012-11-21 23:53:00
6:53 PM,55.0,35.1,47,30.18,10.0,South,3.5,-,N/A,,Clear,180,2012-11-22 00:53:00
7:53 PM,51.1,36.0,56,30.18,10.0,South,5.8,-,N/A,,Clear,170,2012-11-22 01:53:00
8:53 PM,52.0,36.0,54,30.17,10.0,South,6.9,-,N/A,,Clear,180,2012-11-22 02:53:00
9:53 PM,52.0,35.1,53,30.16,10.0,South,8.1,-,N/A,,Clear,170,2012-11-22 03:53:00
10:53 PM,54.0,36.0,51,30.15,10.0,South,10.4,-,N/A,,Clear,190,2012-11-22 04:53:00
11:53 PM,52.0,37.9,59,30.15,10.0,South,9.2,-,N/A,,Clear,170,2012-11-22 05:53:00